Main page
METAR-TAF:

METAR-TAF

Airports :

Sabzevar Airport

Sabzevar, Iran

latitude: 36-13N, longitude: 057-40E, elevation: 941 m

Current weather observation

The report was made 45 minutes ago, at 15:00 UTC
Calm wind
Temperature 32°C
Humidity 21%
Pressure 1013 hPa
Visibility 10 km or more
Scattered clouds at a height of 3500 ft
Scattered clouds at a height of 20000 ft

METAR: OIMS 201500Z 00000KT 9999 SCT035 SCT200 32/07 Q1013

Time: 20:15 (15:45 UTC)


TAF: missing

Weather observations and forecasts of more than 4000 airports (METAR and TAF reports).

The available stations are represented by yellow and red dots on the map.

Hover mouse over dot to see the name of the station.

Then click to see weather observations and forecasts.

To change the map : click on the green buttons with a black cross to zoom in, on the green button with a dash to zoom out, or on the green arrows for adjacent maps.


METAR-TAF: